Date String (YYYY-MM-DD hh:mm:ss) UTC,Instrument flags,Ambient pressure (hPa),Sample flow (lpm),Bypass flow (lpm),Sample temperature (°C),Ambient temperature (°C),ASC tube jacket temperature (°C),LED temperature (°C),Box temperature (°C),Sample RH (%),Span deviation,Mass concentration (μg/m³),Mass concentration (μg/m³),Mass concentration (μg/m³)
DateTimeUTC,F1_M11,P_M11,Q1_M11,Q2_M11,T1_M11,T2_M11,T3_M11,T4_M11,T5_M11,U1_M11,ZSPAN_M11,X2_M11,X0_M11,X1_M11
2022-06-25 21:00:00,,0834.3,5.00,0.00,30.0,29.2,00.0,38.7,32.0,22.0,0000.0,0003.75,0009.30,0003.18
2022-06-25 21:01:00,,0834.3,5.00,0.00,30.0,28.5,00.0,38.6,31.8,22.2,0000.0,0003.75,0009.88,0003.18
2022-06-25 21:02:00,,0834.3,5.01,0.00,29.9,28.0,00.0,38.6,31.7,22.2,0000.0,0003.76,0009.72,0003.19
2022-06-25 21:03:00,,0834.3,4.98,0.00,29.9,27.9,00.0,38.6,31.6,22.4,0000.0,0003.76,0009.49,0003.19
2022-06-25 21:04:00,,0834.3,5.00,0.00,29.8,27.9,00.0,38.6,31.6,22.7,0000.0,0003.74,0009.40,0003.19
2022-06-25 21:05:00,,0834.3,5.00,0.00,29.8,28.0,00.0,38.6,31.6,22.9,0000.0,0003.70,0009.27,0003.19
2022-06-25 21:06:00,,0834.3,5.00,0.00,29.8,28.1,00.0,38.6,31.6,22.6,0000.0,0003.67,0009.22,0003.19
2022-06-25 21:07:00,,0834.3,5.01,0.00,29.8,28.3,00.0,38.6,31.6,22.6,0000.0,0003.69,0009.13,0003.19
2022-06-25 21:08:00,,0834.3,4.99,0.00,29.8,28.4,00.0,38.6,31.7,22.7,0000.0,0003.71,0008.68,0003.21
2022-06-25 21:09:00,,0834.2,5.00,0.00,29.8,28.5,00.0,38.6,31.7,22.6,0000.0,0003.76,0008.73,0003.25
2022-06-25 21:10:00,,0834.3,5.00,0.00,29.8,28.6,00.0,38.6,31.7,22.9,0000.0,0003.79,0009.11,0003.29
2022-06-25 21:11:00,,0834.2,5.00,0.00,29.8,28.7,00.0,38.6,31.7,23.0,0000.0,0003.80,0009.34,0003.30
2022-06-25 21:12:00,,0834.3,5.00,0.00,29.9,28.8,00.0,38.6,31.8,22.6,0000.0,0003.80,0008.52,0003.31
2022-06-25 21:13:00,,0834.3,5.00,0.00,29.9,28.9,00.0,38.6,31.9,22.5,0000.0,0003.79,0008.04,0003.33
2022-06-25 21:14:00,,0834.2,5.00,0.00,29.9,29.0,00.0,38.7,31.9,22.7,0000.0,0003.81,0007.92,0003.35
2022-06-25 21:15:00,,0834.2,5.01,0.00,29.9,29.1,00.0,38.7,31.9,23.1,0000.0,0003.90,0008.35,0003.37
2022-06-25 21:16:00,,0834.2,5.00,0.00,30.0,29.1,00.0,38.7,32.0,22.8,0000.0,0003.94,0009.08,0003.40
2022-06-25 21:17:00,,0834.3,5.00,0.00,30.0,29.1,00.0,38.7,32.0,22.3,0000.0,0003.97,0009.19,0003.43
2022-06-25 21:18:00,,0834.2,5.00,0.00,30.0,28.5,00.0,38.7,31.8,22.3,0000.0,0003.98,0009.46,0003.45
2022-06-25 21:19:00,,0834.2,5.00,0.00,29.9,27.6,00.0,38.6,31.6,22.5,0000.0,0003.96,0009.44,0003.45
2022-06-25 21:20:00,,0834.1,5.00,0.00,29.8,27.3,00.0,38.5,31.4,22.5,0000.0,0003.91,0009.14,0003.45
2022-06-25 21:21:00,,0834.1,5.00,0.00,29.7,27.3,00.0,38.5,31.4,22.6,0000.0,0003.89,0008.63,0003.44
2022-06-25 21:22:00,,0834.1,5.02,0.00,29.7,27.4,00.0,38.5,31.4,22.8,0000.0,0003.87,0008.61,0003.44
2022-06-25 21:23:00,,0834.1,5.00,0.00,29.6,27.5,00.0,38.5,31.4,22.9,0000.0,0003.88,0008.88,0003.45
2022-06-25 21:24:00,,0834.1,5.00,0.00,29.6,27.7,00.0,38.5,31.4,22.8,0000.0,0003.87,0008.91,0003.45
2022-06-25 21:25:00,,0834.0,5.00,0.00,29.6,27.9,00.0,38.5,31.4,23.0,0000.0,0003.85,0008.82,0003.44
2022-06-25 21:26:00,,0834.0,5.00,0.00,29.6,28.1,00.0,38.5,31.5,22.8,0000.0,0003.80,0008.82,0003.44
2022-06-25 21:27:00,,0834.1,4.99,0.00,29.6,28.2,00.0,38.5,31.5,22.9,0000.0,0003.78,0008.28,0003.43
2022-06-25 21:28:00,,0834.1,5.01,0.00,29.7,28.4,00.0,38.5,31.6,23.1,0000.0,0003.76,0008.18,0003.40
2022-06-25 21:29:00,,0834.1,5.01,0.00,29.7,28.5,00.0,38.5,31.6,22.9,0000.0,0003.73,0009.09,0003.38
2022-06-25 21:30:00,,0834.0,5.01,0.00,29.7,28.6,00.0,38.5,31.7,23.0,0000.0,0003.75,0009.28,0003.37
2022-06-25 21:31:00,,0834.0,5.00,0.00,29.7,28.7,00.0,38.5,31.7,23.2,0000.0,0003.76,0009.37,0003.35
2022-06-25 21:32:00,,0834.1,5.00,0.00,29.8,28.8,00.0,38.5,31.7,23.1,0000.0,0003.75,0009.38,0003.34
2022-06-25 21:33:00,,0834.1,4.99,0.00,29.8,28.9,00.0,38.5,31.7,23.0,0000.0,0003.77,0009.15,0003.35
2022-06-25 21:34:00,,0834.1,5.00,0.00,29.8,28.9,00.0,38.6,31.8,23.1,0000.0,0003.78,0008.76,0003.35
2022-06-25 21:35:00,,0834.1,5.01,0.00,29.8,29.0,00.0,38.6,31.8,23.0,0000.0,0003.77,0008.60,0003.35
2022-06-25 21:36:00,,0834.1,4.99,0.00,29.9,29.0,00.0,38.6,31.9,23.1,0000.0,0003.85,0008.81,0003.36
2022-06-25 21:37:00,,0834.1,5.00,0.00,29.9,29.1,00.0,38.6,31.9,23.0,0000.0,0003.87,0008.59,0003.36
2022-06-25 21:38:00,,0834.1,5.00,0.00,29.9,29.1,00.0,38.6,31.9,23.1,0000.0,0003.89,0008.62,0003.36
2022-06-25 21:39:00,,0834.1,5.01,0.00,29.9,28.8,00.0,38.6,31.8,23.2,0000.0,0003.92,0009.54,0003.37
2022-06-25 21:40:00,,0834.0,5.00,0.00,29.9,28.1,00.0,38.6,31.7,23.2,0000.0,0003.96,0008.50,0003.37
2022-06-25 21:41:00,,0834.0,5.00,0.00,29.8,27.8,00.0,38.5,31.6,23.3,0000.0,0003.94,0008.17,0003.37
2022-06-25 21:42:00,,0834.1,5.00,0.00,29.8,27.8,00.0,38.5,31.5,23.5,0000.0,0003.93,0008.14,0003.36
2022-06-25 21:43:00,,0834.1,5.00,0.00,29.7,27.9,00.0,38.5,31.5,23.3,0000.0,0003.93,0008.14,0003.35
2022-06-25 21:44:00,,0834.0,5.00,0.00,29.7,28.0,00.0,38.5,31.5,23.3,0000.0,0003.92,0008.15,0003.35
2022-06-25 21:45:00,,0834.1,5.00,0.00,29.7,28.2,00.0,38.5,31.6,23.4,0000.0,0003.92,0008.19,0003.35
2022-06-25 21:46:00,,0834.1,5.00,0.00,29.7,28.3,00.0,38.5,31.6,23.3,0000.0,0003.94,0008.27,0003.34
2022-06-25 21:47:00,,0834.1,4.99,0.00,29.8,28.5,00.0,38.5,31.7,23.1,0000.0,0003.88,0008.37,0003.33
2022-06-25 21:48:00,,0834.2,5.00,0.00,29.8,28.6,00.0,38.6,31.7,23.2,0000.0,0003.84,0008.23,0003.33
2022-06-25 21:49:00,,0834.1,5.01,0.00,29.8,28.7,00.0,38.6,31.7,23.3,0000.0,0003.82,0007.95,0003.34
2022-06-25 21:50:00,,0834.2,4.99,0.00,29.8,28.8,00.0,38.6,31.8,23.4,0000.0,0003.82,0007.16,0003.34
2022-06-25 21:51:00,,0834.2,5.01,0.00,29.8,28.9,00.0,38.6,31.8,23.3,0000.0,0003.80,0007.09,0003.34
2022-06-25 21:52:00,,0834.3,5.00,0.00,29.9,28.9,00.0,38.6,31.8,23.0,0000.0,0003.80,0007.08,0003.36
2022-06-25 21:53:00,,0834.3,5.00,0.00,29.9,29.0,00.0,38.6,31.9,23.0,0000.0,0003.80,0007.83,0003.38
2022-06-25 21:54:00,,0834.3,5.01,0.00,29.9,29.0,00.0,38.6,31.9,23.2,0000.0,0003.84,0008.26,0003.39
2022-06-25 21:55:00,,0834.3,4.99,0.00,29.9,28.3,00.0,38.6,31.7,23.3,0000.0,0003.84,0008.31,0003.39
2022-06-25 21:56:00,,0834.3,4.99,0.00,29.8,27.8,00.0,38.5,31.6,23.2,0000.0,0003.83,0008.28,0003.40
2022-06-25 21:57:00,,0834.2,5.01,0.00,29.8,27.7,00.0,38.5,31.5,23.1,0000.0,0003.82,0008.23,0003.41
2022-06-25 21:58:00,,0834.3,5.01,0.00,29.7,27.8,00.0,38.5,31.5,23.2,0000.0,0003.85,0008.03,0003.43
2022-06-25 21:59:00,,0834.3,5.00,0.00,29.7,27.9,00.0,38.5,31.5,23.2,0000.0,0003.89,0008.10,0003.46
